Overview Statistics Trail Chart Weather Telemetry Raw packets
 

This is the latest recevied weather packets stored in our database for station/object KN6CRX-10. If no packets are shown the sender has not sent any weather packets the latest 10 day(s).

<< 20 21 22 23 24 25 26 >>
Time Temp. Humidity Pressure Rain* Wind** Luminosity Snow
1788277141 17.22° C 77% 1020.3 hPa 0 mm - 93 W/m² -
1788276840 16.67° C 80% 1020.3 hPa 0 mm - 52 W/m² -
1788276540 16.11° C 80% 1020.5 hPa 0 mm - 42 W/m² -
1788276234 16.11° C 81% 1020.3 hPa 0 mm - 40 W/m² -
1788275930 15.56° C 84% 1020.3 hPa 0 mm - 40 W/m² -
1788275630 15.56° C 84% 1020.2 hPa 0 mm - 39 W/m² -
1788275329 15.56° C 84% 1020.3 hPa 0 mm - 38 W/m² -
1788275027 15.56° C 85% 1020.3 hPa 0 mm - 38 W/m² -
1788274725 15.56° C 87% 1020.5 hPa 0 mm - 38 W/m² -
1788274424 15° C 87% 1020.5 hPa 0 mm - 37 W/m² -
1788274120 15° C 87% 1020.6 hPa 0 mm - 36 W/m² -
1788273815 15° C 87% 1020.6 hPa 0 mm - 35 W/m² -
1788273511 14.44° C 89% 1020.6 hPa 0 mm - 34 W/m² -
1788273206 14.44° C 89% 1020.5 hPa 0 mm - 34 W/m² -
1788272903 14.44° C 89% 1020 hPa 0 mm - 33 W/m² -
1788272602 13.89° C 91% 1020.3 hPa 0 mm - 32 W/m² -
1788272297 13.89° C 92% 1020.2 hPa 0 mm - 31 W/m² -
1788271992 13.89° C 94% 1020.2 hPa 0 mm - 30 W/m² -
1788271691 13.89° C 95% 1020.1 hPa 0 mm - 29 W/m² -
1788271389 13.33° C 95% 1020.2 hPa 0 mm - 28 W/m² -
1788271084 13.33° C 95% 1019.9 hPa 0 mm - 26 W/m² -
1788270779 13.33° C 95% 1020.2 hPa 0 mm - 25 W/m² -
1788270476 12.78° C 96% 1019.9 hPa 0 mm - 24 W/m² -
1788270175 12.78° C 96% 1020 hPa 0 mm - 22 W/m² -
1788269875 12.78° C 96% 1020 hPa 0 mm - 21 W/m² -

* Rain latest hour (hover to see other rain measurements)
** Current wind speed in m/s (hover to see current wind gust speed)